Location: Ku?niki
(51.4449°N, 17.8974°E)
Time: 19:11:11
(UTC+00:00)

Cosmos 2084 Rocket - Pass Details

Date: 18 September 2020
Orbit: 546 x 635 km, 62.8° (Epoch: 21 October)

Event Time Altitude Azimuth Distance (km) Brightness Sun altitude
Rises 17:30:42 0° 312° (NW) 2,847 8.1 -6.3°
Reaches altitude 10° 17:32:58 10° 308° (NW) 1,956 7.3 -6.7°
Maximum altitude 17:37:18 57° 231° (SW) 730 4.2 -7.3°
Drops below altitude 10° 17:41:44 10° 153° (SSE) 1,991 5.8 -8.0°
Enters shadow 17:43:55 - 149° (SSE) 2,852 6.5 -8.4°
